Regional Weather Roundup
Issued by NWS Cleveland, OH

Home | Current Version | Previous Version | Graphics & Text | Print | Product List | Glossary On
Versions: 1 2 3 4 5 6 7 8 9 10 11 12 13 14 15 16 17 18 19 20 21 22 23 24 25 26 27 28 29 30 31 32 33 34 35 36 37 38 39 40 41 42 43 44 45 46 47 48 49 50
000
ASUS41 KCLE 050000
RWRCLE
OHIO REGIONAL WEATHER ROUNDUP
NATIONAL WEATHER SERVICE WILMINGTON, OH
800 PM EDT TUE AUG 04 2015

NOTE: "FAIR" INDICATES FEW OR NO CLOUDS BELOW 12,000 FEET WITH NO
SIGNIFICANT WEATHER AND/OR OBSTRUCTIONS TO VISIBILITY.

OHZ001>008-015>018-024>027-034-035-043-044-050100-
   NORTHWEST OHIO

CITY           SKY/WX    TMP DP  RH WIND       PRES   REMARKS
DEFIANCE       MOCLDY    76  59  55 NW6       29.95S
FINDLAY        MOCLDY    76  61  59 W6        29.95R
TOLEDO EXPRESS PTCLDY    76  57  51 W7        29.93F
TOLEDO EXEC    PTCLDY    77  56  48 NW8       29.94S
LIMA           MOCLDY    75  57  53 W8        29.96S
$$

OHZ009>014-019>023-028>033-038-089-050100-
   NORTHEAST OHIO

CITY           SKY/WX    TMP DP  RH WIND       PRES   REMARKS
CLE-HOPKINS    MOCLDY    76  57  51 W7        29.96S
CLE-LAKEFRONT  PTCLDY    76  61  59 W9        29.92S
CUY CO. ARPT   MOCLDY    77  59  53 W12       29.95R
LORAIN-ELYRIA  PTCLDY    74  61  63 CALM      29.95S
ASHTABULA      CLEAR     75  55  49 W7        29.95R
AKRON-CANTON   MOCLDY    76  55  48 W6        29.96S
WOOSTER        NOT AVBL
MANSFIELD      MOCLDY    74  57  55 SW5       29.98R
YOUNGSTOWN     MOCLDY    76  52  43 W9        29.95R
$$

OHZ042-051>053-060>062-070>072-077>081-050100-
  SOUTHWEST OHIO

CITY           SKY/WX    TMP DP  RH WIND       PRES   REMARKS
CINC-COVINGTON MOCLDY    78  62  57 N5        29.98F
CINC-LUNKEN    PTCLDY    78  61  55 NW6       29.98S
HAMILTON       PTCLDY    75  66  73 CALM      29.99R
DAYTON         NOT AVBL
WRIGHT-PAT AFB NOT AVBL
DAYTON GENERAL MOCLDY    78  57  48 W5        29.98R
WILMINGTON     MOCLDY    77  57  50 W9        29.99R
$$

OHZ036-037-039>041-045>050-054>059-063>069-073>076-082>088-050100-
  CENTRAL AND SOUTHEAST OHIO

CITY           SKY/WX    TMP DP  RH WIND       PRES   REMARKS
COLUMBUS       MOCLDY    77  53  43 NW9       29.96R
OSU AIRPORT    MOCLDY    75  56  51 W10       29.97R
BOLTON FIELD   NOT AVBL
RICKENBACK AFB NOT AVBL
NEWARK         MOCLDY    77  58  51 NW3       29.95S
MARION         MOCLDY    75  59  57 NW3       29.97S
LANCASTER      MOCLDY    76  62  62 CALM      29.97R
ZANESVILLE     PTCLDY    78  55  44 W3        29.96S
NEW PHILLY     CLEAR     75  60  59 CALM      29.96S HAZE
$$


USA.gov is the U.S. government's official web portal to all federal, state and local government web resources and services.